Temp
-9 -9 -9 -9 -9 -9 -9 -9 -9 -9 -9 -9 -9 -9 -9 -9 -9 -9 -8 -9 -9 -8 -8 -8 -8 -8 -8 -8 -7 -7 -7 -7 -7 -7 -7 -8 -8 -8 -8 -8 -8 -8 -8
-9 -9 -9 -9 -9 -9 -9 -9 -9 -9 -9 -9 -9 -9 -9 -9 -9 -9 -9 -9 -9 -8 -8 -8 -8 -8 -8 -8 -8 -8 -8 -7 -7 -7 -7 -8 -8 -8 -8 -8 -8 -8 -8
-9 -9 -9 -9 -9 -9 -9 -9 -9 -9 -9 -9 -9 -9 -9 -9 -9 -9 -9 -9 -9 -8 -8 -8 -8 -8 -8 -8 -8 -8 -8 -8 -8 -8 -8 -8 -8 -8 -8 -8 -8 -8 -8
-10 -10 -10 -9 -9 -9 -9 -9 -9 -9 -9 -9 -9 -9 -9 -9 -9 -9 -9 -9 -9 -9 -8 -8 -8 -8 -8 -8 -8 -8 -8 -8 -8 -8 -8 -7 -8 -8 -8 -8 -8 -8 -8
-10 -10 -10 -10 -10 -10 -9 -9 -9 -9 -9 -9 -9 -9 -9 -9 -9 -9 -9 -9 -9 -9 -9 -9 -9 -8 -8 -8 -8 -8 -8 -8 -8 -8 -7 -8 -8 -8 -8 -8 -8 -8 -8
-10 -10 -10 -10 -10 -10 -10 -10 -9 -10 -9 -9 -9 -9 -9 -9 -9 -9 -9 -9 -9 -9 -9 -9 -9 -9 -8 -8 -8 -8 -8 -8 -8 -8 -8 -8 -8 -8 -8 -8 -8 -8 -8
-11 -10 -10 -10 -10 -10 -10 -10 -10 -10 -10 -10 -9 -10 -9 -9 -9 -9 -9 -9 -9 -9 -9 -9 -9 -9 -9 -9 -8 -8 -8 -8 -8 -8 -8 -8 -8 -8 -8 -8 -8 -8 -8
-11 -11 -11 -11 -11 -11 -11 -10 -10 -10 -10 -10 -10 -10 -10 -10 -9 -9 -9 -9 -9 -9 -9 -9 -9 -9 -9 -9 -9 -9 -9 -8 -8 -8 -8 -8 -8 -8 -8 -8 -8 -8 -9
-12 -11 -11 -11 -11 -11 -11 -11 -11 -11 -10 -10 -10 -10 -10 -10 -10 -10 -10 -9 -9 -9 -9 -9 -9 -9 -9 -9 -9 -9 -9 -9 -8 -8 -8 -8 -8 -8 -8 -8 -8 -9 -9
-11 -12 -12 -12 -11 -11 -11 -11 -11 -11 -11 -11 -10 -10 -10 -10 -10 -10 -10 -10 -10 -10 -10 -10 -9 -9 -9 -9 -9 -9 -9 -9 -9 -8 -8 -8 -8 -8 -8 -8 -9 -9 -9
-11 -11 -11 -12 -12 -11 -11 -11 -11 -11 -11 -11 -11 -11 -10 -10 -10 -10 -10 -10 -10 -10 -10 -10 -10 -9 -9 -9 -9 -9 -9 -9 -9 -9 -9 -9 -9 -8 -8 -8 -8 -9 -9
-12 -12 -11 -11 -11 -11 -12 -11 -11 -11 -11 -11 -11 -11 -11 -11 -11 -10 -10 -10 -10 -10 -10 -10 -10 -10 -10 -10 -9 -9 -9 -9 -9 -9 -9 -9 -9 -9 -9 -9 -9 -9 -9
-12 -12 -12 -11 -11 -11 -11 -11 -11 -11 -11 -11 -11 -11 -11 -11 -11 -11 -11 -10 -10 -10 -10 -10 -10 -10 -10 -10 -10 -10 -10 -10 -9 -9 -9 -9 -9 -9 -9 -9 -9 -9 -9
-12 -12 -12 -12 -11 -11 -11 -11 -11 -11 -11 -11 -11 -11 -11 -11 -11 -11 -11 -11 -11 -10 -10 -10 -10 -11 -11 -11 -10 -10 -10 -10 -10 -10 -10 -10 -9 -9 -9 -9 -9 -9 -9
-12 -11 -11 -11 -11 -11 -11 -11 -11 -11 -11 -11 -11 -11 -11 -11 -11 -11 -11 -11 -11 -11 -11 -11 -11 -11 -11 -11 -11 -11 -10 -10 -10 -10 -10 -10 -10 -10 -10 -10 -9 -10 -10
-12 -12 -12 -12 -11 -11 -11 -11 -11 -11 -12 -11 -12 -12 -11 -11 -11 -11 -11 -11 -11 -11 -11 -11 -11 -11 -11 -11 -11 -11 -11 -10 -10 -10 -10 -10 -10 -10 -10 -10 -10 -10 -10
-12 -12 -12 -12 -12 -12 -12 -12 -12 -12 -12 -12 -11 -11 -12 -11 -11 -11 -11 -11 -11 -11 -11 -12 -12 -12 -11 -11 -11 -11 -11 -11 -10 -10 -11 -11 -10 -10 -10 -10 -10 -10 -10
-12 -12 -12 -12 -12 -12 -12 -12 -12 -12 -12 -12 -12 -12 -12 -11 -11 -11 -12 -12 -11 -12 -12 -12 -12 -12 -12 -12 -12 -11 -11 -11 -11 -11 -11 -11 -11 -11 -11 -10 -10 -10 -10
-12 -12 -12 -13 -12 -12 -12 -12 -12 -12 -12 -13 -13 -13 -13 -12 -12 -11 -12 -12 -12 -12 -12 -12 -12 -12 -12 -12 -12 -12 -12 -11 -11 -11 -11 -11 -11 -11 -11 -11 -11 -11 -11
-13 -13 -13 -13 -13 -13 -13 -13 -13 -13 -13 -13 -13 -13 -13 -13 -13 -12 -12 -12 -13 -12 -12 -12 -12 -12 -12 -12 -12 -12 -12 -12 -11 -11 -11 -11 -11 -11 -11 -11 -11 -11 -11
-14 -14 -14 -14 -14 -14 -14 -14 -14 -14 -13 -13 -13 -13 -13 -13 -13 -13 -13 -12 -12 -13 -13 -13 -12 -12 -12 -12 -12 -12 -12 -12 -12 -12 -11 -11 -11 -11 -11 -11 -11 -11 -11
-14 -14 -14 -14 -14 -14 -14 -14 -14 -14 -14 -14 -14 -14 -14 -14 -14 -13 -13 -13 -12 -12 -13 -13 -13 -13 -13 -13 -13 -13 -12 -12 -12 -12 -12 -11 -11 -11 -12 -12 -12 -12 -12
-15 -15 -15 -15 -15 -15 -15 -15 -15 -15 -15 -15 -14 -14 -14 -14 -14 -14 -14 -14 -13 -13 -13 -13 -14 -13 -13 -13 -13 -13 -12 -12 -12 -12 -12 -12 -11 -12 -12 -12 -12 -12 -12
-16 -16 -16 -16 -16 -16 -16 -16 -16 -15 -15 -15 -15 -15 -15 -15 -15 -15 -14 -14 -14 -13 -14 -14 -14 -14 -14 -14 -14 -13 -13 -13 -12 -12 -12 -12 -12 -12 -12 -12 -12 -12 -12
-16 -17 -17 -17 -17 -16 -16 -16 -16 -16 -16 -16 -16 -16 -15 -15 -15 -15 -15 -15 -15 -14 -14 -15 -15 -15 -14 -14 -14 -14 -14 -13 -13 -12 -12 -13 -12 -12 -12 -13 -13 -13 -12
-17 -17 -18 -19 -18 -18 -17 -17 -17 -17 -17 -16 -16 -16 -16 -16 -16 -16 -16 -16 -16 -15 -16 -16 -16 -16 -15 -15 -14 -14 -14 -14 -13 -13 -13 -13 -13 -13 -13 -13 -13 -13 -13
Height
5852 5853 5854 5855 5856 5857 5858 5859 5860 5861 5862 5862 5862 5863 5865 5865 5866 5867 5869 5871 5873 5874 5875 5876 5877 5878 5879 5880 5880 5881 5882 5883 5884 5885 5886 5886 5887 5888 5889 5890 5891 5892 5893
5849 5850 5851 5853 5854 5855 5856 5857 5859 5860 5860 5861 5862 5862 5863 5864 5865 5866 5867 5869 5871 5873 5874 5875 5877 5878 5879 5879 5881 5882 5882 5883 5884 5885 5886 5887 5888 5888 5890 5891 5891 5892 5893
5847 5847 5849 5850 5851 5853 5854 5855 5857 5857 5858 5859 5860 5861 5861 5863 5864 5865 5866 5867 5869 5871 5872 5874 5875 5877 5878 5879 5881 5882 5883 5884 5884 5885 5887 5887 5888 5889 5890 5891 5892 5893 5894
5844 5845 5846 5847 5848 5850 5851 5852 5854 5855 5856 5857 5858 5859 5860 5861 5862 5864 5865 5866 5867 5869 5871 5873 5874 5876 5877 5878 5880 5882 5883 5884 5885 5886 5886 5887 5889 5889 5890 5891 5892 5893 5894
5841 5843 5843 5844 5845 5847 5848 5850 5851 5852 5853 5854 5855 5857 5858 5859 5860 5861 5863 5864 5865 5867 5869 5871 5872 5874 5876 5877 5878 5880 5881 5883 5884 5885 5886 5887 5888 5889 5890 5891 5892 5893 5894
5841 5839 5840 5842 5843 5844 5845 5846 5847 5849 5850 5851 5852 5853 5855 5856 5857 5859 5861 5862 5863 5864 5866 5868 5870 5872 5873 5875 5876 5878 5880 5882 5883 5884 5885 5886 5887 5888 5889 5890 5891 5892 5893
5836 5836 5837 5838 5840 5841 5842 5842 5843 5844 5846 5847 5848 5850 5851 5853 5854 5856 5858 5859 5860 5862 5863 5865 5867 5869 5870 5872 5874 5876 5878 5880 5881 5882 5884 5885 5886 5887 5888 5889 5890 5891 5892
5833 5831 5833 5834 5835 5837 5838 5839 5840 5841 5842 5843 5844 5846 5847 5849 5851 5852 5854 5856 5857 5859 5860 5862 5863 5865 5867 5869 5870 5872 5874 5877 5878 5880 5881 5882 5884 5885 5886 5887 5888 5889 5890
5827 5827 5828 5829 5830 5832 5833 5835 5836 5837 5838 5839 5840 5841 5843 5844 5846 5848 5850 5851 5853 5854 5856 5858 5860 5861 5863 5864 5866 5868 5870 5872 5875 5876 5878 5879 5881 5882 5884 5886 5886 5887 5889
5822 5823 5824 5823 5825 5827 5828 5829 5831 5832 5833 5834 5835 5837 5838 5840 5841 5843 5845 5847 5848 5850 5852 5854 5856 5858 5859 5860 5861 5863 5865 5867 5870 5872 5874 5876 5878 5879 5881 5882 5884 5885 5886
5818 5819 5819 5820 5820 5822 5822 5824 5826 5827 5828 5829 5830 5831 5833 5834 5836 5838 5840 5842 5843 5846 5848 5850 5852 5853 5855 5856 5857 5858 5861 5863 5865 5867 5870 5871 5873 5875 5877 5878 5880 5882 5883
5815 5815 5815 5816 5816 5817 5818 5818 5820 5820 5822 5823 5824 5825 5827 5828 5830 5832 5834 5836 5837 5840 5842 5844 5846 5848 5849 5851 5852 5854 5856 5858 5860 5863 5865 5866 5869 5871 5873 5875 5876 5878 5879
5811 5811 5810 5810 5811 5811 5813 5813 5814 5815 5816 5817 5818 5819 5819 5821 5824 5826 5828 5830 5831 5833 5835 5837 5840 5842 5844 5845 5847 5849 5851 5852 5855 5858 5860 5862 5864 5866 5868 5870 5872 5874 5875
5806 5807 5807 5806 5806 5807 5807 5807 5808 5809 5810 5811 5812 5813 5814 5815 5816 5818 5820 5822 5824 5826 5828 5830 5833 5835 5837 5839 5841 5843 5845 5847 5849 5852 5854 5856 5858 5860 5862 5864 5866 5868 5870
5802 5802 5803 5802 5802 5803 5802 5802 5802 5803 5804 5804 5805 5806 5808 5809 5810 5811 5812 5814 5817 5819 5821 5822 5825 5828 5830 5832 5834 5836 5838 5840 5843 5845 5847 5849 5851 5854 5856 5858 5860 5862 5864
5798 5797 5797 5797 5797 5797 5797 5797 5797 5797 5797 5798 5798 5798 5799 5801 5803 5804 5805 5806 5808 5810 5812 5813 5816 5819 5821 5824 5827 5829 5830 5833 5836 5838 5840 5842 5845 5847 5849 5852 5853 5855 5857
5793 5793 5792 5792 5792 5792 5791 5791 5791 5791 5791 5792 5792 5791 5791 5791 5793 5795 5796 5798 5800 5801 5803 5805 5808 5811 5813 5815 5818 5821 5822 5823 5827 5831 5834 5835 5837 5840 5843 5845 5847 5848 5850
5785 5785 5786 5785 5785 5785 5785 5784 5784 5784 5783 5783 5784 5784 5784 5783 5783 5784 5786 5787 5790 5793 5794 5796 5798 5801 5804 5806 5808 5811 5814 5816 5818 5822 5826 5829 5830 5832 5834 5837 5840 5842 5843
5776 5776 5776 5775 5775 5775 5775 5775 5776 5776 5775 5775 5774 5774 5775 5775 5774 5774 5776 5776 5778 5781 5784 5786 5788 5790 5793 5796 5799 5801 5803 5807 5809 5811 5816 5820 5822 5823 5826 5828 5831 5834 5836
5764 5765 5765 5764 5763 5763 5764 5764 5764 5765 5765 5765 5764 5764 5764 5765 5765 5764 5764 5765 5767 5769 5772 5775 5777 5780 5783 5786 5788 5790 5792 5796 5799 5801 5805 5810 5812 5814 5817 5819 5822 5824 5826
5752 5751 5751 5751 5750 5750 5750 5751 5751 5752 5752 5752 5752 5753 5753 5754 5754 5755 5754 5753 5755 5757 5760 5762 5765 5768 5771 5774 5777 5780 5782 5786 5790 5792 5794 5798 5804 5804 5807 5810 5812 5815 5817
5737 5736 5735 5736 5736 5735 5736 5736 5738 5737 5737 5738 5739 5740 5741 5741 5742 5743 5743 5743 5743 5744 5746 5749 5751 5755 5758 5761 5764 5768 5770 5775 5778 5781 5784 5787 5791 5795 5798 5800 5802 5804 5808
5721 5721 5721 5721 5721 5721 5720 5720 5722 5723 5723 5722 5725 5726 5727 5728 5729 5730 5730 5731 5731 5732 5733 5735 5738 5741 5744 5746 5750 5754 5758 5763 5766 5769 5773 5776 5779 5782 5787 5789 5792 5792 5797
5705 5705 5705 5704 5704 5704 5705 5705 5706 5708 5708 5707 5710 5711 5713 5715 5715 5717 5716 5716 5717 5719 5720 5721 5723 5727 5729 5733 5735 5740 5744 5749 5753 5757 5761 5764 5766 5770 5774 5778 5781 5782 5785
5685 5685 5684 5686 5687 5686 5688 5688 5689 5689 5691 5692 5694 5696 5697 5699 5700 5702 5702 5702 5702 5704 5706 5707 5709 5712 5715 5718 5721 5724 5729 5733 5738 5743 5748 5750 5753 5756 5761 5765 5769 5771 5773
5665 5665 5664 5666 5666 5665 5667 5668 5670 5672 5673 5675 5677 5680 5681 5683 5685 5687 5687 5686 5688 5689 5691 5693 5695 5698 5700 5703 5706 5710 5715 5720 5724 5728 5732 5737 5740 5743 5746 5751 5756 5758 5760
Wind_Speed
16 14 15 13 12 11 9 11 14 15 14 13 12 10 8 7 8 11 11 12 11 11 10 8 6 8 8 12 14 15 15 14 13 12 11 12 12 12 12 10 9 8 7
17 17 16 16 15 15 13 13 14 16 17 16 15 14 11 9 8 11 13 13 13 13 13 11 9 8 8 10 13 14 14 13 13 12 12 12 11 10 11 10 8 6 5
16 17 19 19 19 17 18 16 16 16 17 18 18 17 15 12 10 10 13 14 14 15 16 14 12 9 10 10 12 14 13 13 13 13 13 12 11 10 10 11 7 5 4
18 18 18 19 20 20 20 20 19 18 18 18 20 20 18 16 13 12 13 16 15 15 16 16 15 13 11 12 12 14 14 14 14 13 13 12 11 9 9 9 8 6 4
21 19 20 19 18 19 20 22 22 21 20 19 19 20 21 19 17 16 13 15 17 17 17 17 17 17 15 13 13 13 15 16 15 16 15 14 12 10 8 8 9 8 6
20 24 24 21 19 19 20 20 22 23 23 22 21 20 21 22 21 18 17 15 16 17 18 19 20 19 18 17 15 16 15 17 17 18 16 15 12 10 10 11 11 10 7
22 26 26 24 23 21 20 21 22 23 23 23 24 23 22 22 24 22 20 19 18 17 17 19 21 22 22 21 20 18 18 18 19 19 18 17 14 12 10 10 11 10 10
23 27 26 26 26 25 24 23 22 22 22 22 23 25 25 24 24 23 23 23 22 21 19 18 20 23 25 24 24 23 21 20 20 21 20 19 18 15 12 12 11 12 11
23 26 28 28 27 28 27 27 26 24 24 24 24 24 25 26 27 26 26 25 26 25 23 22 21 21 22 25 27 27 26 24 23 23 23 22 21 19 17 15 14 14 14
19 21 25 28 29 28 29 30 29 28 28 28 27 27 26 26 27 29 29 29 29 28 27 25 25 23 21 22 23 26 28 27 26 25 24 23 24 23 22 18 17 16 16
19 18 19 22 25 27 29 30 31 31 31 30 30 30 30 30 29 29 29 30 32 30 31 28 28 27 25 24 23 24 26 28 28 27 26 25 26 26 25 23 21 19 19
18 19 19 19 20 21 22 25 27 29 31 31 31 32 32 32 32 31 31 31 31 31 32 34 32 29 29 29 27 25 25 27 29 29 28 28 28 28 28 27 26 24 22
20 20 21 20 20 21 22 23 23 24 25 27 30 31 33 33 33 33 33 33 33 33 35 36 36 35 32 31 31 29 26 28 30 31 31 30 30 29 29 29 29 27 26
20 19 20 21 22 22 23 24 26 26 27 27 27 27 28 30 33 33 34 35 35 36 36 37 37 37 37 37 33 33 30 29 31 31 33 33 33 32 31 30 30 30 30
19 17 17 17 17 20 21 24 27 29 30 30 30 30 29 29 30 31 32 34 37 38 38 39 39 38 39 39 39 36 34 33 33 33 34 36 35 35 34 33 33 33 33
23 23 22 22 22 23 24 24 25 28 29 32 33 33 33 33 33 34 33 33 35 37 40 41 40 40 40 41 41 41 41 38 36 35 35 38 38 38 37 37 36 35 36
28 27 27 27 29 28 28 28 28 27 29 31 32 33 34 34 33 34 37 38 38 38 40 41 42 42 43 43 42 42 43 43 43 39 37 37 39 40 40 40 39 38 38
32 31 31 35 34 33 35 35 36 36 34 33 34 34 35 36 36 35 37 38 39 42 43 43 43 44 43 44 44 44 44 45 45 46 40 36 38 39 42 42 42 41 41
38 37 36 37 39 39 37 39 42 42 42 40 38 35 36 36 38 37 38 40 42 42 44 47 47 47 45 44 44 46 47 45 45 46 45 45 41 40 40 44 44 43 44
43 43 42 41 42 42 42 43 46 46 45 44 44 43 42 39 37 38 40 39 43 45 46 47 50 51 50 48 47 46 47 46 47 47 45 44 44 48 44 43 44 47 45
46 47 47 47 46 47 47 47 48 49 49 49 49 48 47 46 46 43 43 42 43 45 48 49 50 52 54 53 52 51 51 48 46 48 49 47 45 45 48 51 45 48 47
55 53 53 54 52 50 50 49 49 50 51 52 52 49 49 47 47 46 45 44 45 45 48 51 53 54 55 56 57 56 55 53 52 50 50 50 48 49 51 53 56 53 49
62 61 61 60 58 55 54 55 54 52 53 53 52 50 52 51 49 49 49 48 46 45 47 52 55 56 57 58 59 60 59 58 56 55 54 53 53 51 49 51 43 46 51
61 61 63 63 63 63 62 60 57 56 55 56 54 54 55 55 53 50 50 48 48 48 48 52 56 58 59 59 61 60 60 60 59 59 56 56 56 55 54 51 54 55 52
65 62 61 58 60 65 65 64 62 60 58 58 58 57 58 58 56 51 50 48 48 49 50 52 56 58 61 61 61 63 61 61 61 60 58 58 58 59 57 57 54 51 54
72 68 63 59 60 60 63 64 63 62 61 60 61 61 60 61 58 53 51 51 51 52 51 52 56 58 58 60 60 61 60 57 55 54 52 51 51 52 51 51 51 52 55
Wind_Direction
250 247 244 249 251 249 243 246 242 235 228 227 234 236 238 239 230 218 212 208 214 216 207 208 196 179 171 169 169 169 168 168 167 167 166 162 160 157 154 137 120 111 100
249 247 243 245 246 247 243 238 242 241 237 231 237 237 235 239 248 224 220 218 220 217 217 213 207 195 188 185 183 182 183 183 179 177 173 170 165 161 166 162 142 127 111
251 250 244 242 242 243 242 240 237 237 243 239 235 241 241 239 241 235 227 223 223 220 215 220 216 209 204 200 199 197 195 193 187 181 175 172 170 169 171 178 170 156 141
255 251 252 247 244 244 244 243 240 236 236 242 242 240 242 242 238 238 232 229 225 225 221 219 224 220 216 214 210 206 202 199 193 186 180 178 174 174 174 183 188 187 192
257 253 254 252 248 247 248 244 244 242 240 237 241 243 243 242 243 239 236 229 230 228 226 225 225 226 224 225 225 218 212 206 202 196 191 187 185 186 186 196 201 209 215
256 259 255 254 251 245 247 247 245 241 241 241 240 242 242 243 244 243 241 237 236 233 231 228 229 229 228 230 231 230 224 218 213 207 203 201 203 204 212 213 215 220 234
259 258 259 257 252 247 243 244 243 245 244 244 244 244 243 244 245 244 244 243 241 238 236 235 232 232 232 233 237 237 233 226 223 218 213 210 212 218 220 219 226 230 236
254 258 259 257 254 250 245 241 242 243 245 246 245 245 246 246 246 247 245 247 246 244 241 239 239 237 236 237 238 241 239 233 227 225 222 218 219 222 228 229 229 236 239
254 252 256 255 254 250 248 246 244 242 243 245 247 247 246 247 247 246 245 245 246 246 244 243 241 241 241 240 240 240 240 237 231 226 227 224 225 225 229 231 233 234 238
264 260 255 256 254 253 251 248 248 249 247 246 245 245 247 249 248 248 246 246 247 249 248 247 244 244 243 242 240 239 237 235 233 230 226 229 227 229 230 234 237 239 240
270 263 260 257 257 256 255 253 253 251 251 251 251 249 245 246 248 249 249 249 251 249 249 251 249 246 245 244 242 239 237 235 232 233 231 228 231 231 233 233 236 242 242
270 270 268 265 261 258 256 259 256 255 253 250 249 250 250 246 245 247 249 251 251 249 248 249 249 249 245 244 243 241 238 236 234 233 232 233 232 235 236 237 236 237 242
266 265 267 266 266 266 264 261 262 260 259 256 253 249 248 248 247 246 246 249 250 249 246 247 249 248 247 246 243 244 242 239 234 235 235 235 236 235 237 240 243 242 243
274 272 269 270 270 267 267 266 263 260 260 259 257 256 252 250 250 248 248 246 247 250 251 249 248 248 250 246 247 244 241 241 238 235 238 237 238 239 240 240 241 243 245
274 271 268 269 277 280 277 273 269 265 262 259 257 256 255 254 252 251 251 250 250 250 250 251 251 249 248 248 248 247 244 241 240 239 238 238 239 240 240 242 242 242 244
275 275 276 275 278 280 282 278 276 274 267 262 259 257 256 254 254 255 253 253 252 252 252 252 251 251 250 248 247 250 248 247 244 241 239 241 239 240 242 242 243 243 243
272 274 276 279 282 282 283 280 276 274 274 274 269 263 258 254 254 253 255 254 252 253 253 253 254 252 252 250 248 247 248 250 245 245 244 243 243 243 244 245 245 245 246
273 273 276 276 275 276 278 277 276 277 275 271 271 270 267 264 259 255 254 254 254 253 253 254 253 252 252 252 251 250 247 247 250 246 245 246 247 247 245 245 247 248 248
273 272 273 275 274 273 274 275 273 274 274 271 270 267 267 268 267 264 259 257 255 251 251 252 252 253 251 250 251 251 250 248 249 248 247 245 246 247 248 248 247 247 249
275 274 275 272 271 270 270 273 272 273 270 267 266 267 269 267 267 269 266 262 258 257 252 249 250 251 251 250 249 249 250 249 248 249 246 241 245 246 250 249 250 250 250
272 272 272 270 266 265 266 267 269 267 268 265 263 265 266 267 268 267 266 265 262 257 256 253 249 249 250 251 249 248 248 250 249 250 251 248 246 240 245 249 250 250 251
273 270 268 267 266 264 265 265 265 266 264 264 262 261 261 261 263 263 263 263 262 261 257 256 253 249 247 248 248 248 249 248 249 250 251 251 249 245 248 249 251 252 251
273 271 270 270 267 263 261 263 264 264 261 259 258 261 261 260 260 262 262 262 261 260 260 256 256 253 250 248 247 247 247 248 249 249 250 251 251 250 246 247 247 248 250
275 275 273 268 265 263 262 263 261 259 258 257 258 261 259 258 260 258 259 260 260 259 257 257 256 254 253 251 249 247 248 247 247 248 249 252 252 252 251 248 249 252 256
277 277 275 272 272 268 267 263 259 256 256 256 257 259 258 257 260 259 257 258 261 260 258 255 254 254 253 250 250 249 247 248 248 248 247 249 251 252 254 253 249 251 254
277 275 273 270 267 266 265 257 255 255 255 256 258 259 258 256 258 260 259 260 262 263 260 255 254 253 252 251 249 247 246 244 244 244 244 244 248 251 252 253 253 252 251